[[{"header":{"parameterUnit":"m.s-1","parameterCategory":1,"la1":30.2991,"la2":30.254,"lo1":-89.0895,"lo2":-89.0444,"dy":0.0017,"dx":0.0017,"nx":28,"ny":28,"refTime":"2024-08-14T03:00:00:Z","depth":0,"parameterNumber":2,"parameterNumberName":"U-component_of_WINDS"},"data":[0,0,0,0,0,0,0,0,0,0,0,0,0,0,0,0,0,0,0,0,0,0,0,0,0,0,0,0,0,0,0,0,0,0,0,0,0,0,0,0,0,0,0,0,0,0,0,0,0,0,0,0,0,0,0,0,0,0,-0.4924,-0.4924,0,-0.4909,-0.4909,-0.4909,-0.4895,-0.4895,-0.4895,-0.4895,-0.488,-0.4879,-0.4879,0,0,0,0,0,0,0,0,0,0,0,0,0,-0.494,-0.494,-0.4924,-0.4923,-0.4923,-0.4909,-0.4909,-0.4909,-0.4895,-0.4895,-0.4895,-0.4895,-0.488,-0.4879,-0.4879,0,0,0,0,0,0,0,0,0,0,0,0,0,-0.493,-0.494,-0.4924,-0.4915,-0.4914,-0.4909,-0.4909,-0.4909,-0.4895,-0.4895,-0.4895,-0.4895,-0.488,-0.488,-0.4879,-0.4882,0,0,-0.4878,-0.4878,0,0,0,0,0,0,0,0,-0.4931,-0.4929,-0.4916,-0.4916,-0.4914,-0.4904,-0.4909,-0.49,-0.4896,-0.4902,-0.4895,-0.4895,-0.4888,-0.4887,-0.4885,-0.4881,-0.488,-0.4878,-0.4878,-0.4878,-0.4877,0,0,0,0,0,0,0,-0.4931,-0.493,-0.4918,-0.4916,-0.4915,-0.4912,-0.491,-0.4907,-0.4897,-0.4902,-0.4901,-0.4899,-0.4887,-0.4885,-0.4884,-0.488,-0.4878,-0.4878,-0.4877,-0.4877,-0.4879,-0.4879,0,0,0,0,0,0,-0.4933,-0.4931,-0.4918,-0.4917,-0.4922,-0.4912,-0.491,-0.4907,-0.4897,-0.4895,-0.49,-0.4899,-0.4886,-0.4885,-0.4884,-0.4886,-0.4878,-0.4877,-0.4877,-0.4879,-0.4879,-0.4879,0,0,0,0,0,0,-0.4934,-0.4932,-0.4919,-0.4924,-0.4922,-0.4912,-0.4909,-0.4907,-0.4905,-0.4895,-0.4893,-0.4899,-0.4886,-0.4884,-0.4883,-0.4885,-0.4877,-0.4877,-0.4878,-0.4879,-0.4879,-0.4891,0,0,0,0,0,0,-0.4934,-0.4933,-0.4933,-0.4924,-0.4922,-0.4918,-0.4909,-0.4907,-0.4904,-0.4903,-0.4894,-0.4892,-0.4885,-0.4883,-0.4882,-0.4885,-0.4876,-0.4878,-0.4878,-0.4879,-0.4891,-0.4892,-0.4893,0,0,0,0,0,-0.4935,-0.4937,-0.4933,-0.4932,-0.4922,-0.4918,-0.4917,-0.4909,-0.4905,-0.4905,-0.4899,-0.4893,-0.4886,-0.4883,-0.4882,-0.4884,-0.4878,-0.4878,-0.4879,-0.489,-0.4892,-0.4893,0,0,0,0,0,0,-0.4946,-0.4936,-0.4931,-0.4931,-0.4925,-0.4916,-0.4916,-0.4911,-0.4907,-0.4906,-0.4896,-0.4894,-0.4893,-0.4889,-0.4886,-0.4887,-0.4881,-0.4881,-0.489,-0.4891,-0.4893,-0.4893,-0.4876,0,0,0,0,0,-0.4949,-0.4947,-0.4937,-0.4937,-0.4935,-0.4926,-0.4924,-0.4919,-0.4913,-0.491,-0.4904,-0.4899,-0.4895,-0.4893,-0.4889,-0.489,-0.4888,-0.4892,-0.4893,-0.4894,-0.4894,-0.4895,-0.4896,-0.4881,-0.4881,-0.4881,0,0,-0.4954,-0.4948,-0.4947,-0.494,-0.4935,-0.4933,-0.4925,-0.4922,-0.4921,-0.491,-0.4908,-0.4904,-0.4897,-0.4897,-0.4896,-0.4893,-0.4898,-0.4895,-0.4896,-0.4895,-0.4896,-0.4897,-0.4898,-0.4882,-0.4882,-0.4881,0,0,-0.4962,-0.4957,-0.4957,-0.4953,-0.4946,-0.494,-0.494,-0.4932,-0.4929,-0.4927,-0.4919,-0.4917,-0.4911,-0.4907,-0.4904,-0.4912,-0.4906,-0.4911,-0.4918,-0.4919,-0.492,-0.4921,-0.4924,-0.4925,-0.4912,-0.4912,-0.4912,0,-0.4969,-0.4965,-0.4957,-0.4956,-0.4953,-0.4944,-0.4944,-0.4941,-0.4933,-0.4931,-0.4928,-0.4921,-0.4916,-0.4915,-0.4917,-0.4915,-0.4915,-0.4912,-0.492,-0.4921,-0.4922,-0.4925,-0.4926,-0.4912,-0.4912,-0.4912,-0.4912,0,-0.4974,-0.4972,-0.4972,-0.4966,-0.4963,-0.4963,-0.4955,-0.4953,-0.4949,-0.4943,-0.4942,-0.4936,-0.4931,-0.493,-0.4925,-0.4929,-0.4927,-0.4922,-0.4916,-0.4924,-0.4927,-0.4927,-0.4913,-0.4913,-0.4913,-0.4913,0,0,-0.4987,-0.4978,-0.4978,-0.4975,-0.4968,-0.4966,-0.4965,-0.4961,-0.496,-0.4955,-0.4954,-0.495,-0.4946,-0.4943,-0.4938,-0.4938,-0.4945,-0.4933,-0.4933,-0.4936,-0.4949,-0.4952,-0.4953,-0.4942,-0.4942,-0.4942,-0.4949,0,-0.4994,-0.4992,-0.4985,-0.4985,-0.4983,-0.4975,-0.4975,-0.4971,-0.4966,-0.4964,-0.4959,-0.4956,-0.4951,-0.4949,-0.495,-0.4944,-0.4948,-0.4944,-0.494,-0.494,-0.4942,-0.4954,-0.4957,-0.4964,-0.495,-0.495,-0.495,0,-0.5,-0.4997,-0.4997,-0.499,-0.4989,-0.4989,-0.4985,-0.4983,-0.4978,-0.4975,-0.4972,-0.4966,-0.4965,-0.496,-0.4959,-0.4956,-0.4955,-0.4952,-0.4952,-0.4951,-0.4945,-0.4953,-0.4967,-0.4967,-0.4952,-0.4951,-0.4951,0,-0.501,-0.5005,-0.5005,-0.5003,-0.4995,-0.4995,-0.4992,-0.4987,-0.4985,-0.4982,-0.498,-0.4977,-0.4975,-0.4972,-0.4966,-0.4963,-0.4966,-0.496,-0.4963,-0.4963,-0.4963,-0.4963,-0.4976,-0.4963,-0.4963,-0.4963,-0.4963,0,-0.5017,-0.5017,-0.5009,-0.5008,-0.5009,-0.5002,-0.5002,-0.4998,-0.4994,-0.4993,-0.4987,-0.4986,-0.4978,-0.4976,-0.4971,-0.4971,-0.497,-0.4968,-0.4966,-0.4968,-0.4968,-0.4966,-0.4965,-0.4964,-0.4963,-0.4963,-0.4963,0,-0.5027,-0.5022,-0.502,-0.5014,-0.5012,-0.5013,-0.5007,-0.5007,-0.5003,-0.5001,-0.5001,-0.4994,-0.4992,-0.4986,-0.4982,-0.4979,-0.498,-0.4977,-0.4981,-0.498,-0.4983,-0.4983,-0.4995,-0.4996,-0.4983,-0.4983,-0.4984,0,-0.5032,-0.5032,-0.5026,-0.5025,-0.5022,-0.502,-0.5018,-0.5012,-0.5011,-0.5006,-0.5006,-0.5003,-0.5001,-0.4998,-0.4993,-0.499,-0.4987,-0.4992,-0.4987,-0.4988,-0.4987,-0.4987,-0.4987,-0.4992,-0.4993,-0.4993,-0.4993,0,-0.5041,-0.5038,-0.5036,-0.5033,-0.5031,-0.5029,-0.5025,-0.5025,-0.5018,-0.5017,-0.5015,-0.5013,-0.5009,-0.5007,-0.5004,-0.5001,-0.4996,-0.4995,-0.4995,-0.4996,-0.4999,-0.4997,-0.4983,-0.4994,-0.4994,-0.4994,-0.4994,-0.4994,-0.5048,-0.5048,-0.5043,-0.5041,-0.5039,-0.5036,-0.5036,-0.5032,-0.503,-0.5027,-0.5023,-0.5022,-0.5018,-0.5013,-0.501,-0.5009,-0.5006,-0.5007,-0.5007,-0.5007,-0.5008,-0.5,-0.5009,-0.5009,-0.5008,-0.5008,-0.5008,0,-0.5056,-0.5053,-0.5052,-0.5048,-0.5046,-0.5043,-0.5039,-0.5038,-0.5037,-0.5034,-0.5032,-0.503,-0.5028,-0.5023,-0.5021,-0.5021,-0.5018,-0.502,-0.502,-0.5019,-0.5011,-0.501,-0.5022,-0.5022,-0.5022,-0.5022,-0.5022,-0.5022,-0.506,-0.506,-0.5057,-0.5055,-0.5053,-0.5051,-0.505,-0.5048,-0.5045,-0.5043,-0.5041,-0.5039,-0.5035,-0.5032,-0.503,-0.5029,-0.5028,-0.5031,-0.5029,-0.5021,-0.502,-0.5018,-0.5018,-0.5031,-0.5031,-0.5037,-0.5037,-0.5037]},{"header":{"parameterUnit":"m.s-1","parameterCategory":1,"la1":30.2991,"la2":30.254,"lo1":-89.0895,"lo2":-89.0444,"dy":0.0017,"dx":0.0017,"nx":28,"ny":28,"refTime":"2024-08-14T03:00:00:Z","depth":0,"parameterNumber":3,"parameterNumberName":"V-component_of_WINDS"},"data":[0,0,0,0,0,0,0,0,0,0,0,0,0,0,0,0,0,0,0,0,0,0,0,0,0,0,0,0,0,0,0,0,0,0,0,0,0,0,0,0,0,0,0,0,0,0,0,0,0,0,0,0,0,0,0,0,0,0,0.9778,0.9778,0,0.9819,0.9819,0.982,0.9862,0.9862,0.9863,0.9863,0.9903,0.9903,0.9904,0,0,0,0,0,0,0,0,0,0,0,0,0,0.9732,0.9732,0.9778,0.9778,0.9779,0.9819,0.9819,0.982,0.9862,0.9862,0.9863,0.9864,0.9903,0.9903,0.9904,0,0,0,0,0,0,0,0,0,0,0,0,0,0.976,0.9732,0.9778,0.9805,0.9807,0.9819,0.9819,0.982,0.9862,0.9862,0.9863,0.9864,0.9903,0.9903,0.9904,0.9891,0,0,0.9906,0.9907,0,0,0,0,0,0,0,0,0.9758,0.9762,0.98,0.9803,0.9806,0.9836,0.9818,0.9844,0.9861,0.9841,0.9864,0.9865,0.988,0.9883,0.9888,0.9893,0.9895,0.9907,0.9907,0.9907,0.9908,0,0,0,0,0,0,0,0.9756,0.976,0.9794,0.9801,0.9804,0.9813,0.9818,0.9823,0.9855,0.9843,0.9846,0.985,0.9882,0.9887,0.9889,0.9896,0.9907,0.9907,0.9908,0.9908,0.9888,0.9887,0,0,0,0,0,0,0.9751,0.9758,0.9793,0.9795,0.9784,0.9813,0.9819,0.9826,0.9855,0.986,0.985,0.9852,0.9886,0.9889,0.9891,0.9875,0.9907,0.9908,0.9908,0.9889,0.9888,0.9887,0,0,0,0,0,0,0.9749,0.9753,0.9791,0.9778,0.9783,0.9813,0.982,0.9826,0.9832,0.986,0.9866,0.985,0.9886,0.989,0.989,0.9878,0.9908,0.9909,0.989,0.9889,0.9887,0.9846,0,0,0,0,0,0,0.9748,0.9753,0.9749,0.9777,0.9784,0.9791,0.982,0.9826,0.9833,0.9837,0.9862,0.9867,0.9887,0.9889,0.9891,0.9879,0.991,0.9892,0.989,0.9888,0.9848,0.9843,0.9838,0,0,0,0,0,0.9746,0.9736,0.9749,0.9753,0.978,0.979,0.9794,0.9818,0.9832,0.9828,0.9846,0.9866,0.9879,0.9889,0.9891,0.9879,0.9892,0.989,0.9888,0.9851,0.9844,0.9839,0,0,0,0,0,0,0.9706,0.9741,0.9755,0.9754,0.9769,0.9797,0.9793,0.9811,0.9822,0.9825,0.9854,0.9859,0.9855,0.9868,0.9878,0.9867,0.9888,0.9886,0.9859,0.9853,0.9848,0.9844,0.991,0,0,0,0,0,0.9698,0.9704,0.9733,0.9729,0.9736,0.9763,0.9768,0.9786,0.9802,0.9808,0.9826,0.984,0.9847,0.9851,0.9859,0.9851,0.9855,0.9843,0.9838,0.9834,0.9832,0.9825,0.9819,0.988,0.988,0.988,0,0,0.9679,0.9699,0.9701,0.9722,0.9735,0.9739,0.9768,0.9772,0.9774,0.9809,0.9809,0.9823,0.984,0.9835,0.9834,0.9845,0.9816,0.9831,0.9828,0.9828,0.9822,0.9816,0.9811,0.9878,0.9878,0.9879,0,0,0.9648,0.9664,0.9661,0.9674,0.9694,0.9711,0.971,0.9735,0.9745,0.9747,0.9771,0.9774,0.9787,0.9797,0.9804,0.9772,0.979,0.9774,0.9748,0.974,0.9736,0.9731,0.9718,0.9713,0.9772,0.9772,0.9772,0,0.9622,0.9631,0.9658,0.9659,0.9666,0.9697,0.9692,0.9703,0.9724,0.9727,0.974,0.9754,0.9768,0.9764,0.9756,0.9762,0.9759,0.9771,0.9734,0.973,0.9727,0.9714,0.9709,0.977,0.977,0.977,0.977,0,0.9597,0.9602,0.9597,0.9616,0.9622,0.9621,0.9646,0.9649,0.9665,0.968,0.968,0.9697,0.9708,0.9709,0.9725,0.9706,0.9712,0.9729,0.9751,0.9718,0.9706,0.9702,0.9766,0.9767,0.9768,0.9768,0,0,0.9543,0.9574,0.9572,0.9579,0.9602,0.9606,0.9604,0.9615,0.9615,0.9628,0.9626,0.9634,0.9649,0.9657,0.9674,0.9668,0.9638,0.9686,0.9686,0.9674,0.9615,0.96,0.9594,0.9651,0.965,0.9649,0.9613,0,0.9513,0.9513,0.9536,0.9529,0.9532,0.956,0.9558,0.9571,0.9585,0.9588,0.9603,0.9607,0.9628,0.9632,0.9628,0.9643,0.9627,0.9646,0.9647,0.9646,0.964,0.9589,0.9574,0.9538,0.9608,0.9608,0.9607,0,0.948,0.9489,0.9482,0.9502,0.9504,0.9502,0.9512,0.9516,0.9529,0.9539,0.9546,0.9566,0.9563,0.9585,0.958,0.9593,0.9595,0.9602,0.9601,0.96,0.9624,0.9584,0.9528,0.9522,0.9601,0.9601,0.9602,0,0.9437,0.9449,0.9445,0.9451,0.9475,0.9472,0.9482,0.9496,0.95,0.9508,0.951,0.9518,0.9522,0.9526,0.9546,0.956,0.9538,0.9562,0.9544,0.9544,0.9537,0.9537,0.9478,0.9542,0.9542,0.9542,0.9542,0,0.9401,0.9395,0.9426,0.9424,0.9417,0.9442,0.9434,0.9446,0.9458,0.9457,0.9482,0.948,0.9507,0.9508,0.9523,0.9515,0.9518,0.9524,0.9528,0.9521,0.9519,0.9521,0.9523,0.9541,0.9541,0.9541,0.9541,0,0.9353,0.9374,0.9371,0.9393,0.9398,0.9391,0.9409,0.9407,0.9421,0.9419,0.942,0.9443,0.9444,0.9465,0.9471,0.9481,0.9466,0.9476,0.9461,0.9464,0.9444,0.9444,0.9382,0.9373,0.9444,0.9444,0.9443,0,0.9327,0.9323,0.9344,0.9345,0.9353,0.9355,0.9358,0.9382,0.9384,0.9397,0.9392,0.9396,0.94,0.94,0.9416,0.942,0.9429,0.9406,0.9429,0.9421,0.9425,0.9424,0.9422,0.9401,0.94,0.9399,0.9399,0,0.9279,0.9289,0.9293,0.93,0.9303,0.931,0.9318,0.9317,0.9342,0.9343,0.9345,0.9348,0.9353,0.9355,0.9361,0.9369,0.9387,0.9391,0.9387,0.9378,0.9369,0.9371,0.9445,0.9392,0.9393,0.9393,0.9394,0.9394,0.924,0.9236,0.9249,0.9252,0.926,0.9266,0.9264,0.9277,0.9279,0.9285,0.9299,0.9297,0.9308,0.9318,0.9324,0.9322,0.9333,0.9328,0.9326,0.9323,0.9318,0.9371,0.9324,0.9324,0.9324,0.9324,0.9325,0,0.9191,0.92,0.9202,0.9212,0.9213,0.923,0.9239,0.9238,0.9237,0.9245,0.9248,0.9248,0.9249,0.9264,0.9267,0.9262,0.927,0.9262,0.9261,0.9262,0.931,0.9312,0.9255,0.9255,0.9255,0.9255,0.9255,0.9255,0.9166,0.9159,0.9169,0.9165,0.9174,0.9173,0.9176,0.9181,0.9187,0.9186,0.9187,0.9197,0.9207,0.921,0.9211,0.9215,0.9213,0.9202,0.9208,0.9252,0.9259,0.9265,0.9267,0.9202,0.9202,0.916,0.916,0.916]}]]